Showing default

SINOD-D 3, 40977

Orbit data source: Space-Track

SINOD-D 3, 40977 is a payload satellite owned by SRI (US) in LEO that was launched on Thu, 08 Oct 2015 UTC via an ATLAS V 401 launch vehicle from the Air Force Western Test Range (AFWTR). Payload-class satellites include a variety of spacecraft equipped with specific instruments for various scientific and technological missions. These include communications satellites like Starlink; space stations such as the ISS; scientific satellites like the Hubble; Earth observation satellites from companies like Planet Labs, Umbra, and HawkEye 360; GPS; miniature CubeSats for education and research; and military/defense satellites.

Loading next visibility...
Identifier
40977, 2015-058P
Orbit
LEO
Country
Flag of USUS
Related business
Manufacturer
SRI
Mission
Operational Commercial Technology
Bus & Motor
CUBESAT 2U, Unknown motor
Mass
2 kg wet, 2 kg dry
Launch date (UTC)
2015-10-08 (10 years ago)
Launch vehicle
ATLAS V 401
Launch site
Air Force Western Test Range (AFWTR)
Object type
Payload
Rocket body
Debris
Shape & HBR
Box, 0.1 m
Radar Cross Section
0.025 m², Small (<0.1 m²)

Expand to show TLE details & history
Last TLE update: 18 hours ago

TLE from 18 hours ago
0 SINOD-D 3
1 40977U 15058P   25302.27864323  .00004676  00000-0  40718-3 0  9999
2 40977  64.7723 275.7092 0131062 149.4447 211.4386 14.91719343 80281
Epoch: 2025-10-29T06:41Z
TLE epoch observation values (Epoch: 2025-10-29T06:41:14.775Z)
Latitude
-0.00004°
Longitude
137.54355°
Altitude
672.86 km
Speed
7.479 km/s
True Right ascension
18h 22m 50s
True Declination
0° 00' 00"
Sunlit
Object was in daylight at epoch
Visualization orbit readout
Latitude
Unknown
Longitude
Unknown
Altitude
Unknown
Speed
Unknown
Apparent Right ascension
Unknown
Apparent Declination
Unknown
Sunlit
N/A
Visualization observer readout
Local Sidereal Time
19:45:59
Azimuth
Unknown
Elevation
Unknown
Doppler factor
Unknown
Orbital elements
Apogee altitude
682.482 km
Perigee altitude
499.8 km
Semi-major axis
6,969.278 km
Eccentricity
0.01311
Inclination
64.7723°
RAAN
275.7092°
Arg. of periapsis
149.4447°
True anomaly
210.66608°
Mean anomaly
211.4386°
Eccentric anomaly
211.05127°
Mean motion
3.73045 °/min
Orbital period
96.5 mins
BSTAR
0.00040718
Loading maneuver chart data...
Computing Atmospheric mass density...
Loading historical data...
Loading historical data...
Loading historical data...
Loading historical data...
Loading historical data...
Loading historical data...
Loading historical data...

Documentation

Showing up to 5 results
|